* Astronomy

Members Login
Username 
 
Password 
    Remember Me  
Post Info TOPIC: Comet P/2015 F1 (PANSTARRS)


L

Posts: 131433
Date:
RE: Comet P/2015 F1 (PANSTARRS)
Permalink  
 


Comet P/2015 F1 (PANSTARRS) is at Opposition (1.563 AU) in the constellation Ophiuchus on the 30th May 2015



__________________


L

Posts: 131433
Date:
Permalink  
 

Comet P/2015 F1 (PANSTARRS) makes its closest approach to the Earth (1.564 AU) in the constellation Ophiuchus on the 27th May 2015



__________________


L

Posts: 131433
Date:
Permalink  
 

Orbital elements:
    P/2015 F1 (PANSTARRS)
T 2015 Jan. 24.73302 TT                                 MPCW
q   2.5594876            (2000.0)            P               Q
n   0.10404404     Peri.  173.11944     -0.83024079     +0.55649784
a   4.4770427      Node    40.74754     -0.51370164     -0.74176591
e   0.4283084      Incl.    2.79130     -0.21635817     -0.37429066
P   9.47
From 53 observations 2015 Mar. 21-26.

MPEC 2015 - F119

Ephemeris

Date    TT    R. A. (2000) Decl.     Delta      r    Elong.  Phase   Mag
2015 05 01    16 44 09.1 -23 47 53   1.6478  2.5546   147.4    12.3  17.7
2015 05 02    16 43 44.7 -23 48 41   1.6416  2.5552   148.4    11.9  17.7
2015 05 03    16 43 18.9 -23 49 27   1.6355  2.5557   149.5    11.5  17.6
2015 05 04    16 42 51.5 -23 50 09   1.6297  2.5562   150.6    11.2  17.6
2015 05 05    16 42 22.8 -23 50 49   1.6242  2.5568   151.6    10.8  17.6
2015 05 06    16 41 52.7 -23 51 25   1.6188  2.5574   152.7    10.4  17.6
2015 05 07    16 41 21.3 -23 51 59   1.6136  2.5579   153.8    10.0  17.6
2015 05 08    16 40 48.5 -23 52 29   1.6087  2.5585   154.9     9.6  17.6
2015 05 09    16 40 14.5 -23 52 56   1.6040  2.5591   156.0     9.2  17.6
2015 05 10    16 39 39.2 -23 53 20   1.5995  2.5597   157.1     8.8  17.6
2015 05 11    16 39 02.8 -23 53 40   1.5953  2.5604   158.2     8.4  17.6
2015 05 12    16 38 25.2 -23 53 58   1.5912  2.5610   159.3     8.0  17.6
2015 05 13    16 37 46.5 -23 54 12   1.5875  2.5617   160.4     7.6  17.6
2015 05 14    16 37 06.8 -23 54 23   1.5839  2.5623   161.5     7.2  17.6
2015 05 15    16 36 26.1 -23 54 30   1.5806  2.5630   162.6     6.8  17.6
2015 05 16    16 35 44.4 -23 54 34   1.5776  2.5637   163.7     6.4  17.6
2015 05 17    16 35 01.9 -23 54 35   1.5748  2.5644   164.8     5.9  17.6
2015 05 18    16 34 18.6 -23 54 33   1.5722  2.5651   165.9     5.5  17.6
2015 05 19    16 33 34.5 -23 54 28   1.5699  2.5658   167.1     5.1  17.6
2015 05 20    16 32 49.8 -23 54 19   1.5679  2.5666   168.2     4.6  17.6
2015 05 21    16 32 04.4 -23 54 08   1.5661  2.5673   169.3     4.2  17.6
2015 05 22    16 31 18.5 -23 53 53   1.5645  2.5681   170.4     3.8  17.6
2015 05 23    16 30 32.1 -23 53 35   1.5632  2.5688   171.5     3.3  17.6
2015 05 24    16 29 45.3 -23 53 14   1.5622  2.5696   172.6     2.9  17.6
2015 05 25    16 28 58.2 -23 52 51   1.5614  2.5704   173.7     2.5  17.6
2015 05 26    16 28 10.7 -23 52 25   1.5609  2.5712   174.7     2.1  17.6
2015 05 27    16 27 23.1 -23 51 56   1.5606  2.5720   175.7     1.7  17.6
2015 05 28    16 26 35.3 -23 51 24   1.5606  2.5729   176.7     1.3  17.6
2015 05 29    16 25 47.5 -23 50 50   1.5609  2.5737   177.4     1.0  17.6
2015 05 30    16 24 59.7 -23 50 14   1.5614  2.5745   177.8     0.9  17.6
2015 05 31    16 24 11.9 -23 49 36   1.5622  2.5754   177.7     0.9  17.6


__________________
Page 1 of 1  sorted by
 
Quick Reply

Please log in to post quick replies.



Create your own FREE Forum
Report Abuse
Powered by ActiveBoard